This demonstration page uses our WeatherBlox Daily Observations layout. Learn more.

Left ArrowRight Arrow

41.86663, -103.66717

Hourly Observations for March 5, 2016

Temp ( °F °C ) Dew Point ( °F °C ) Humidity (%) Winds ( mph kmh ) Pressure ( in mb ) Visibility ( mi km ) Precip ( " mm )
12:53 am 00:53 Clear 29 -1.7 16 -8.9 58 58 ENE 6 9 30.16 1021 10 16 N/A
1:53 am 01:53 Clear 30 -1.1 18 -7.8 61 61 E 9 15 30.15 1021 10 16 N/A
2:53 am 02:53 Clear 28 -2.2 16 -8.9 60 60 N N/A 30.12 1020 10 16 N/A
3:53 am 03:53 Clear 29 -1.7 18 -7.8 63 63 E 9 15 30.09 1019 10 16 N/A
4:53 am 04:53 Clear 29 -1.7 17 -8.3 61 61 E 8 13 30.08 1019 10 16 N/A
5:53 am 05:53 Clear 30 -1.1 18 -7.8 61 61 E 7 11 30.09 1019 10 16 N/A
6:53 am 06:53 Sunny 33 0.6 20 -6.7 58 58 ESE 10 17 30.10 1019 10 16 N/A
7:53 am 07:53 Sunny 39 3.9 24 -4.4 55 55 E 8 13 30.11 1020 10 16 N/A
8:53 am 08:53 Sunny 50 10 27 -2.8 41 41 ESE 10 17 30.05 1018 10 16 N/A
9:53 am 09:53 Sunny 61 16.1 26 -3.3 26 26 SSE 13 20 30.00 1016 10 16 N/A
10:53 am 10:53 Sunny 67 19.4 24 -4.4 20 20 S 18 30 29.94 1014 10 16 N/A
11:53 am 11:53 Sunny 67 19.4 23 -5 19 19 SSW 22 35 29.93 1014 10 16 N/A
12:53 pm 12:53 Sunny 67 19.4 24 -4.4 20 20 S 18 30 29.89 1012 10 16 N/A
1:53 pm 13:53 Sunny 68 20 25 -3.9 20 20 SSW 13 20 29.85 1011 10 16 N/A
2:53 pm 14:53 Sunny 70 21.1 21 -6.1 16 16 S 9 15 29.83 1010 10 16 N/A
3:53 pm 15:53 Sunny 71 21.7 17 -8.3 13 13 SSW 6 9 29.79 1009 10 16 N/A
4:53 pm 16:53 Sunny 66 18.9 20 -6.7 17 17 SE 6 9 29.79 1009 10 16 N/A
5:53 pm 17:53 Clear 56 13.3 21 -6.1 26 26 ESE 6 9 29.81 1010 10 16 N/A
6:53 pm 18:53 Clear 49 9.4 22 -5.6 35 35 E 8 13 29.82 1010 10 16 N/A
7:53 pm 19:53 Clear 45 7.2 23 -5 42 42 E 7 11 29.82 1010 10 16 N/A
8:53 pm 20:53 Clear 43 6.1 24 -4.4 47 47 N 10 17 29.80 1009 10 16 N/A
9:53 pm 21:53 Clear 40 4.4 21 -6.1 47 47 NE 5 7 29.78 1009 10 16 N/A
10:53 pm 22:53 Clear 37 2.8 22 -5.6 54 54 NNE 6 9 29.78 1008 10 16 N/A
11:53 pm 23:53 Clear 36 2.2 23 -5 59 59 NE 7 11 29.77 1008 10 16 N/A

Powered by AerisWeather